sat.trackr.live / text

‹ back to catalog

USA 119

NORAD 23893 · 1996-029A

PAYLOAD ACTIVE UNKNOWN

§ Identity

Operator
Country
US
Launch date
1996-05-12
Launch site
AFWTR
Launch vehicle
Mass (kg)
RCS (m²)

External: N2YO · Heavens-Above · Gunter

§ Orbital elements

Epoch: 2026-05-25T00:15:03.718080Z

Period
106.97 min
Inclination
63.3195°
Eccentricity
0.0849945
Mean motion
13.46175900 rev/d
Perigee alt
451.9 km
Apogee alt
1,720.8 km
Semi-major
7,464.5 km
B*
1.1517e-4
RAAN
252.7532°
Arg perigee
48.8232°
Mean anomaly
318.2999°
Rev number
10,215

§ Raw data

USA 1191 23893U 96029A   26145.01045970  .00000578  00000+0  11517-3 0  99922 23893  63.3195 252.7532 0849945  48.8232 318.2999 13.46175900102152

JSON: /api/v1/satellites/23893 · /tle

For live sub-satellite position, see the globe view (requires WebGL).

§ Visibility from observer

Set your observer location to see the next 7 days of passes ≥ 10°. The values pass through the URL so the page stays shareable.

No JS? Fill the form by hand. The geolocation button needs JavaScript.